Temperature
22 22 21 21 20 19 20 21 21 20 20 20 20 20 19 18 18 18 18 18 18 18 18 18 18 18 18 18 18 18 18 18 18 18 18 18 18 18 18 18 18 18 18 18 18 18 18 18 18
22 22 22 21 19 19 20 21 21 20 20 20 20 20 19 18 18 18 18 18 18 18 18 18 18 18 18 18 18 18 18 18 18 18 18 18 18 18 18 18 18 18 18 18 18 18 18 18 18
22 22 22 19 20 19 21 21 21 21 21 21 20 19 19 18 18 18 18 18 18 18 18 18 18 18 18 18 18 18 18 18 18 18 18 18 18 18 18 18 18 18 18 18 18 18 18 18 18
23 22 22 20 21 21 21 21 21 21 21 20 20 19 19 19 19 19 19 18 18 18 18 18 18 18 18 18 18 18 18 18 18 18 18 18 18 18 18 18 18 18 18 18 18 18 18 18 18
23 23 20 20 21 22 22 22 22 21 20 20 19 19 18 19 19 19 19 18 18 18 18 18 18 18 18 18 18 18 18 18 18 18 18 18 18 18 18 18 18 18 18 18 18 18 18 18 18
23 21 20 20 22 22 22 22 21 20 20 20 19 18 18 19 19 19 19 19 18 18 18 18 18 18 18 18 18 18 18 18 18 18 18 18 18 18 18 18 18 18 18 18 18 18 18 18 17
23 20 21 21 22 22 22 22 21 20 20 20 20 18 18 19 19 19 19 19 18 18 18 18 18 18 18 18 18 18 18 18 18 18 18 18 18 18 18 18 18 18 18 18 18 18 18 18 17
24 20 21 21 22 22 22 22 21 21 21 20 20 19 18 19 19 19 19 18 18 18 18 18 18 18 18 18 18 18 18 18 18 18 18 18 18 18 18 18 18 18 18 18 18 18 18 17 17
24 20 21 22 22 22 22 22 22 21 21 20 20 20 20 19 19 19 19 18 18 18 18 18 18 18 18 18 18 18 18 18 18 18 18 18 18 18 18 18 18 18 18 18 18 18 17 17 17
24 21 22 23 22 22 22 22 22 21 21 20 20 20 20 19 19 19 19 19 19 19 19 19 18 18 18 18 18 18 18 18 18 18 18 18 18 18 18 18 18 18 18 18 18 18 18 18 17
23 22 23 24 24 23 22 22 22 21 20 20 20 20 20 19 19 19 19 19 19 19 19 19 18 18 18 18 18 18 18 18 18 18 18 18 18 18 18 18 18 18 18 18 18 18 18 18 18
24 24 24 24 24 24 23 22 22 21 22 22 21 21 20 20 19 20 20 19 19 19 19 19 19 18 18 18 18 18 18 18 18 18 18 18 18 18 18 18 18 18 18 18 18 18 18 18 18
25 25 25 25 24 24 23 22 22 22 22 22 21 20 20 20 20 20 20 20 19 19 19 19 19 19 18 18 18 18 18 18 18 18 18 18 18 18 18 18 18 18 18 18 18 18 18 18 18
25 24 24 24 24 24 23 22 22 22 22 21 21 20 20 20 20 20 20 20 19 19 19 19 19 19 18 19 18 18 18 18 18 18 18 18 18 18 18 18 18 18 18 18 18 18 18 18 18
25 24 24 24 24 24 23 22 22 22 22 21 21 20 20 20 20 20 20 20 20 19 19 19 19 19 19 19 18 18 18 18 18 18 18 18 18 18 18 18 18 18 18 18 18 18 18 18 18
24 23 23 24 24 23 23 22 22 22 21 21 20 20 20 20 20 20 20 20 20 20 19 19 19 19 19 18 18 18 18 18 18 18 18 18 18 18 18 18 18 17 18 18 18 18 18 17 18
23 23 23 24 24 23 22 22 21 21 21 21 21 20 20 20 20 20 20 20 20 20 20 20 19 19 19 19 18 18 18 18 18 18 18 18 18 17 18 18 17 17 17 17 17 17 17 17 17
23 23 23 23 24 23 22 22 21 21 21 21 21 21 21 21 21 21 21 20 20 20 20 20 19 19 19 19 18 18 18 18 18 18 18 18 18 18 18 18 17 17 17 17 17 17 17 17 17
24 24 24 24 24 23 22 22 21 21 21 21 21 21 21 21 21 21 21 20 20 20 20 20 20 19 19 19 19 18 18 18 18 18 18 18 18 18 18 18 17 17 17 17 17 17 17 17 17
24 24 24 24 24 24 22 22 21 21 21 21 21 21 21 21 21 21 21 21 20 20 20 20 20 19 19 19 19 19 18 18 18 18 18 18 18 18 18 18 18 17 17 17 17 17 17 17 17
24 24 24 24 24 23 23 22 22 21 22 22 22 22 22 22 22 22 21 21 21 21 20 20 20 20 19 19 19 19 19 18 18 18 18 18 18 18 18 18 18 17 17 17 17 17 17 17 17
24 24 24 24 23 21 23 21 21 21 21 21 22 21 22 22 22 22 22 21 21 21 21 20 20 20 20 19 19 19 19 19 19 18 18 18 18 18 18 18 18 18 17 17 17 17 17 17 17
24 24 24 23 22 21 21 21 21 21 21 21 21 22 22 22 22 22 22 22 22 21 21 21 20 20 20 19 19 19 19 19 19 18 18 18 18 18 18 18 18 18 18 17 17 17 17 17 17
24 23 22 20 20 21 21 21 21 20 21 21 22 22 22 22 22 23 23 22 22 21 21 21 20 20 20 20 19 19 19 19 19 19 19 19 18 18 18 18 18 18 18 17 17 17 17 17 17
23 21 21 21 20 20 21 21 21 22 21 22 22 23 23 23 23 23 23 22 22 22 21 21 21 21 20 20 20 19 19 19 19 19 19 19 19 18 18 18 18 18 18 17 17 17 17 17 17
22 22 21 22 21 20 21 21 22 22 22 23 23 23 23 23 23 23 23 23 23 22 22 21 21 21 21 20 20 20 19 19 19 19 19 19 19 18 18 18 18 18 18 17 17 17 17 17 17
22 21 21 19 20 20 20 21 21 22 22 22 22 23 23 23 23 23 23 23 23 23 22 22 22 21 21 21 20 20 20 20 19 19 19 19 19 18 18 18 18 18 18 18 17 17 17 17 17
22 19 18 19 20 21 22 21 21 23 22 22 21 22 23 23 23 23 23 23 23 23 23 22 22 22 21 21 21 20 20 20 20 19 19 19 19 18 18 18 18 18 18 18 17 17 17 17 17
21 20 18 17 18 19 21 21 22 22 22 21 21 23 23 24 23 23 23 23 23 23 23 22 22 22 21 21 21 21 20 20 20 20 20 19 19 19 18 18 18 18 18 17 17 17 17 17 17
22 20 18 20 19 18 19 20 22 21 21 21 22 23 24 24 24 23 23 23 23 23 23 22 22 22 22 21 21 21 21 20 20 20 20 19 19 19 18 18 18 18 18 17 17 17 17 17 17
Wind_Speed
8 7 3 1 4 5 3 3 2 2 3 3 5 5 5 4 2 2 1 2 2 2 2 5 8 10 11 12 12 13 14 14 14 14 14 14 15 15 15 15 15 15 16 16 16 16 16 16 16
6 4 2 3 5 4 3 2 3 3 4 3 5 5 5 4 3 3 1 1 2 2 3 5 9 10 11 11 12 12 13 14 14 14 15 14 14 15 15 15 15 15 16 16 16 16 15 15 15
6 2 3 4 4 3 2 1 3 5 3 2 4 4 4 2 2 2 2 3 3 3 3 5 9 10 11 11 11 12 13 13 13 13 14 14 14 15 15 15 15 15 15 16 16 15 15 14 14
3 2 4 5 3 1 3 4 5 5 4 5 4 5 3 2 2 3 5 5 4 2 3 4 8 9 10 10 11 12 12 12 12 12 13 13 13 14 14 14 14 14 14 14 14 14 14 13 12
2 4 5 4 3 2 3 4 3 3 3 3 4 4 3 3 6 7 7 5 4 2 2 3 7 9 10 10 10 11 11 11 11 11 12 12 12 12 13 13 13 13 13 13 13 12 12 11 11
4 4 5 2 2 3 3 3 4 5 4 3 4 4 2 2 5 5 5 4 3 2 2 3 6 8 8 9 9 10 10 10 10 10 10 11 11 11 11 11 11 11 11 11 11 10 10 9 9
4 4 3 2 2 2 3 3 4 4 4 3 3 4 2 2 3 5 5 4 3 3 2 2 4 5 6 8 8 9 9 9 9 9 10 10 10 10 10 9 9 9 9 9 9 9 8 7 7
4 5 3 1 2 1 4 3 3 4 3 4 4 5 4 4 4 6 5 4 3 3 2 2 3 4 4 5 6 7 7 7 8 8 8 9 9 8 8 7 7 7 8 7 7 7 6 6 5
3 5 2 3 4 3 4 4 2 2 5 2 3 3 5 8 8 7 5 4 3 3 2 2 2 3 3 3 4 5 6 6 7 7 7 7 6 6 6 6 6 6 6 6 6 5 5 4 4
4 3 5 4 5 5 5 5 4 4 4 3 5 7 9 10 9 8 6 5 4 3 2 1 1 2 2 3 4 4 4 5 6 6 6 6 6 5 5 5 5 5 5 4 4 4 3 3 2
4 5 3 2 5 7 6 4 3 7 2 4 8 11 11 9 8 7 6 5 4 3 3 2 2 2 2 2 3 3 3 4 5 5 5 5 5 5 5 4 4 4 4 4 3 2 2 2 1
4 1 3 4 5 6 6 5 4 3 3 7 11 13 11 10 9 8 7 5 4 4 3 2 3 3 2 2 2 2 2 2 2 3 4 4 3 3 3 2 3 3 3 3 2 2 1 1 1
3 2 3 5 7 7 7 5 4 2 4 9 11 11 11 9 7 6 5 5 5 4 3 3 3 3 3 2 2 2 2 1 1 2 2 3 2 1 2 2 2 2 2 2 2 1 1 1 1
3 5 5 6 6 4 6 4 3 1 7 10 11 10 10 9 8 6 5 5 5 5 4 3 3 3 3 3 2 2 2 2 2 2 1 2 1 1 1 1 1 2 2 1 1 1 1 1 1
5 7 6 4 4 3 6 3 0 4 8 9 9 9 8 8 7 8 8 7 6 5 4 4 4 4 3 3 2 2 2 2 2 1 1 1 2 2 2 1 1 1 1 2 2 2 2 1 1
5 5 2 1 3 4 6 2 2 6 9 8 8 8 7 7 8 7 7 6 6 5 5 5 5 5 4 2 2 1 1 2 1 1 1 1 2 2 2 1 0 1 2 2 1 1 2 1 1
4 2 2 2 2 4 4 3 4 7 8 7 7 7 7 6 6 6 7 7 6 6 6 5 4 5 4 3 2 1 1 1 1 1 1 1 1 2 3 1 0 1 2 1 1 1 1 1 1
4 3 3 4 3 5 3 3 4 8 8 7 7 6 7 8 8 7 7 6 6 6 6 6 5 4 4 3 2 1 1 0 0 1 1 2 2 2 3 1 1 1 1 1 1 1 1 1 1
5 5 3 4 3 5 4 4 5 8 8 8 7 7 8 9 6 5 6 6 6 6 6 6 5 4 4 3 2 2 1 1 1 1 2 2 2 3 2 1 1 1 1 1 1 1 2 1 1
5 4 2 1 2 4 3 3 5 9 11 11 10 10 9 7 5 6 6 6 6 7 7 6 6 5 5 4 3 2 2 1 1 1 1 2 2 3 3 2 2 1 1 1 1 1 1 0 1
3 5 5 4 2 3 2 3 3 5 5 6 7 7 7 9 10 9 8 8 7 7 8 8 6 6 5 4 3 2 2 2 1 1 1 1 2 3 3 3 2 2 2 1 1 1 2 1 1
3 4 5 5 4 1 2 2 5 3 5 8 9 9 10 10 9 9 10 9 9 9 7 6 6 6 5 5 4 4 3 2 2 2 1 1 1 2 2 3 3 2 1 2 2 2 2 2 1
5 3 4 4 4 2 2 1 7 1 5 10 11 11 11 11 11 11 12 11 10 9 8 7 6 6 5 5 6 5 3 3 1 1 1 1 1 1 2 2 2 2 2 2 2 1 2 2 2
6 7 7 6 5 0 3 3 6 4 7 8 10 11 11 11 11 11 10 8 7 7 7 6 6 6 6 6 5 5 5 3 2 2 2 1 1 1 2 2 2 2 2 2 2 2 2 2 2
6 6 4 3 3 5 3 3 7 7 7 9 9 10 10 11 11 10 10 10 9 9 8 7 8 7 6 6 6 6 6 5 5 4 3 2 2 2 3 2 2 2 2 2 2 2 2 2 2
5 8 7 6 5 4 1 5 7 6 5 5 6 6 7 9 10 11 11 11 10 10 9 9 8 8 7 7 7 6 6 5 4 4 4 4 3 3 2 2 2 2 2 2 2 2 2 1 2
6 4 6 7 3 1 4 6 8 3 2 2 3 4 7 9 10 10 10 10 10 10 10 10 9 8 7 7 6 5 6 5 5 4 4 3 3 3 2 2 2 2 2 2 1 1 2 1 2
6 8 6 6 5 2 4 4 5 5 5 4 4 6 7 7 8 8 9 9 9 10 9 9 9 9 7 7 7 7 6 6 5 4 5 4 4 3 2 2 3 2 2 2 2 2 2 2 2
4 5 6 5 5 6 3 7 6 8 7 7 8 7 7 7 8 8 8 8 8 7 8 8 8 8 7 8 7 7 6 6 5 5 5 5 4 3 3 3 3 2 2 2 2 2 2 2 2
5 7 8 6 4 5 5 7 6 6 6 7 8 7 6 6 6 6 7 7 7 8 8 8 8 8 8 7 7 7 6 5 5 5 5 4 4 3 3 3 2 2 2 2 2 3 2 2 3
Wind_Direction
155 150 145 94 55 50 29 1 50 62 55 45 71 79 89 68 79 129 293 82 65 35 44 97 94 94 93 91 90 96 96 97 98 99 103 105 107 108 107 106 106 106 106 107 112 114 115 117 119
149 149 115 60 74 63 355 358 57 70 130 126 69 65 69 59 58 97 75 87 85 74 56 95 95 95 95 94 92 95 96 97 98 98 101 102 106 105 105 103 104 105 107 107 107 109 114 117 119
159 159 85 67 80 139 168 123 113 102 103 67 66 55 66 79 94 125 162 124 88 70 62 98 99 98 101 99 96 94 96 97 98 99 99 99 102 104 103 101 102 104 107 108 108 109 112 115 117
137 63 54 63 57 222 164 152 131 116 66 47 82 64 55 67 127 136 129 116 99 69 58 104 102 103 105 101 98 96 95 98 99 101 101 101 103 102 103 102 101 102 106 108 109 110 113 116 117
79 74 57 43 21 28 101 132 117 90 71 60 81 82 37 18 99 119 127 129 128 104 67 100 105 109 108 102 99 97 95 96 99 101 101 103 106 106 104 102 102 103 106 108 109 110 111 115 120
60 68 72 55 32 51 90 103 93 83 85 84 89 92 47 97 118 138 135 134 128 107 80 108 109 107 107 104 100 98 96 94 94 98 100 102 102 103 103 102 104 105 106 110 112 110 110 114 119
99 87 108 123 83 81 140 120 113 117 107 118 119 99 101 152 150 134 118 116 109 99 83 72 94 100 103 105 100 98 99 97 96 95 95 97 100 100 100 101 103 106 108 111 114 113 113 115 117
123 94 76 100 123 148 140 107 102 120 111 122 114 129 168 190 142 113 100 99 103 95 78 60 67 75 79 92 98 100 99 97 96 94 93 95 96 96 98 98 100 105 110 112 116 118 116 116 116
100 76 146 187 166 157 136 115 126 85 106 109 103 133 150 138 127 115 104 94 105 114 83 81 72 74 76 81 91 93 96 89 84 83 86 81 73 79 88 97 103 109 112 116 119 125 122 115 108
96 125 210 197 167 146 140 132 141 103 104 91 85 94 113 127 135 138 142 146 156 163 162 127 111 90 80 90 77 73 77 70 64 68 71 70 70 74 82 84 94 99 105 107 114 118 109 93 82
135 165 188 141 142 133 133 127 115 125 157 172 145 139 138 139 145 152 159 162 174 174 166 161 147 120 106 93 86 69 70 63 64 67 73 73 66 60 59 60 64 70 78 74 75 71 71 81 94
132 164 148 141 126 127 138 133 116 153 188 148 144 142 144 150 160 167 168 167 158 150 164 159 143 134 134 129 116 99 88 78 75 78 83 85 66 51 53 59 57 65 76 79 73 67 53 60 110
111 100 86 104 104 107 103 110 121 132 108 123 131 137 149 158 166 170 165 160 154 161 169 165 142 140 141 130 134 121 119 119 112 97 91 99 93 67 60 60 61 60 71 87 89 89 71 63 58
113 87 77 80 90 98 103 83 80 139 125 130 140 151 160 167 169 161 160 164 169 172 173 161 150 151 140 130 128 132 141 134 113 107 111 117 133 117 100 80 62 47 55 79 110 127 103 45 67
89 78 56 63 95 109 104 63 199 161 139 144 156 162 166 174 175 180 182 179 179 176 169 163 164 147 139 139 144 136 137 128 120 128 136 136 144 141 121 102 53 32 70 87 92 89 84 67 61
62 71 76 263 123 127 121 213 221 160 149 159 169 171 174 184 188 192 186 182 175 166 170 176 171 152 150 146 147 137 137 138 155 165 152 143 154 149 129 103 33 44 79 86 82 75 81 63 59
45 119 209 250 170 140 147 215 194 165 160 173 181 183 185 193 200 198 190 184 178 174 172 170 163 154 153 146 136 132 127 136 165 155 163 180 166 155 143 137 121 74 78 64 77 68 98 109 86
205 188 201 208 206 144 167 217 182 175 175 186 191 193 196 203 209 196 187 181 179 175 170 166 163 159 146 132 108 79 69 19 117 192 209 198 191 169 151 146 113 87 82 54 68 80 64 92 75
162 160 185 225 194 156 200 214 193 184 187 194 200 203 209 215 208 186 181 174 171 173 171 171 169 170 150 144 152 154 197 243 262 240 220 204 194 177 163 156 133 122 118 119 106 93 78 59 77
145 154 176 300 140 157 195 240 203 191 200 202 202 207 209 207 192 189 182 176 179 182 182 180 183 181 177 175 169 165 162 192 223 263 245 221 205 196 190 176 177 170 140 106 109 116 117 128 99
170 180 188 178 80 60 95 331 218 212 207 209 208 207 204 206 201 196 189 189 185 188 189 192 191 188 186 172 133 107 78 47 29 328 286 263 221 211 194 183 182 177 170 200 217 180 169 195 240
222 211 169 148 120 311 107 276 285 225 213 217 215 208 209 209 202 195 190 191 193 197 191 189 186 184 183 169 163 164 172 195 224 226 242 280 246 225 205 191 189 193 193 214 230 199 185 174 221
192 128 117 122 126 65 36 157 290 198 228 232 223 215 209 201 195 194 196 197 196 192 187 186 180 184 182 175 178 175 189 208 223 222 254 286 302 273 235 204 191 200 214 225 232 215 196 188 197
128 77 61 53 75 336 242 173 279 229 222 235 226 219 212 199 196 197 196 192 194 188 185 182 180 190 186 182 182 181 190 199 198 216 232 252 275 283 265 221 202 209 221 230 232 222 204 201 200
105 99 56 15 15 248 249 193 249 247 227 222 221 218 209 196 194 196 190 191 194 190 188 182 181 195 191 186 191 194 197 196 201 210 217 226 242 250 255 226 208 216 228 232 222 210 221 209 202
166 144 158 185 208 263 286 227 251 258 251 229 219 213 197 194 196 199 198 196 195 193 189 185 187 196 194 194 201 201 198 198 207 206 211 219 227 237 241 219 215 218 226 234 212 214 229 213 212
138 162 158 133 142 164 274 283 302 296 294 232 210 197 202 202 200 200 197 195 193 192 192 190 190 195 196 198 199 202 204 203 209 210 211 223 227 227 225 226 229 229 227 227 200 211 233 213 217
142 144 109 121 144 218 283 271 248 253 242 238 229 217 216 207 203 200 194 195 195 193 190 186 188 195 199 197 202 212 211 212 209 205 215 221 223 226 222 231 234 231 230 220 200 223 234 214 234
124 108 112 115 143 155 221 265 229 220 218 214 224 224 218 210 205 200 195 193 188 182 182 185 192 194 197 201 205 211 209 206 204 210 218 217 220 223 231 231 228 229 233 223 212 237 241 236 256
158 162 147 151 192 169 172 259 267 228 221 210 219 226 222 211 205 197 189 183 181 186 187 190 195 198 206 202 200 209 208 201 204 215 221 216 217 222 225 222 221 232 236 223 218 237 247 245 255
Height
1488 1488 1490 1492 1495 1506 1510 1504 1499 1500 1501 1502 1501 1502 1504 1507 1509 1514 1510 1508 1507 1507 1506 1505 1505 1505 1505 1504 1504 1503 1503 1504 1504 1504 1505 1506 1507 1508 1510 1511 1513 1514 1516 1517 1519 1521 1523 1525 1527
1489 1489 1492 1493 1503 1518 1514 1503 1502 1501 1501 1502 1502 1504 1505 1507 1508 1509 1509 1509 1509 1509 1508 1508 1508 1508 1508 1507 1507 1507 1507 1507 1507 1508 1508 1509 1510 1511 1513 1514 1516 1517 1519 1520 1522 1524 1526 1528 1530
1490 1491 1493 1496 1507 1515 1511 1503 1502 1502 1502 1502 1504 1506 1507 1509 1509 1510 1510 1511 1511 1511 1511 1510 1510 1510 1511 1511 1510 1510 1510 1510 1511 1512 1512 1512 1513 1514 1516 1517 1519 1520 1522 1523 1525 1527 1529 1530 1533
1491 1493 1495 1502 1508 1505 1503 1502 1502 1503 1504 1504 1505 1508 1510 1511 1511 1512 1512 1512 1513 1513 1513 1513 1513 1513 1514 1514 1514 1514 1514 1514 1515 1515 1516 1516 1517 1518 1519 1521 1522 1523 1525 1527 1528 1530 1532 1533 1535
1492 1493 1501 1510 1507 1502 1501 1502 1503 1503 1505 1506 1507 1510 1512 1513 1513 1513 1514 1514 1515 1515 1515 1516 1516 1516 1517 1517 1517 1518 1518 1518 1518 1519 1520 1520 1521 1522 1523 1524 1525 1527 1528 1530 1531 1533 1535 1536 1538
1493 1495 1511 1517 1508 1503 1503 1504 1504 1505 1507 1508 1509 1511 1514 1514 1514 1515 1516 1516 1517 1518 1518 1518 1518 1519 1519 1520 1521 1521 1521 1521 1522 1522 1523 1523 1524 1525 1526 1528 1529 1530 1531 1533 1534 1536 1537 1539 1540
1495 1501 1510 1511 1510 1507 1505 1505 1506 1506 1507 1509 1510 1512 1514 1516 1516 1517 1517 1518 1520 1520 1520 1521 1521 1521 1522 1523 1524 1524 1524 1525 1525 1526 1526 1527 1528 1529 1530 1531 1532 1533 1534 1535 1537 1538 1539 1540 1541
1494 1501 1509 1511 1510 1508 1505 1506 1507 1508 1509 1510 1511 1512 1514 1516 1517 1518 1519 1520 1522 1523 1523 1523 1524 1524 1525 1526 1526 1527 1528 1528 1529 1529 1529 1530 1531 1532 1533 1534 1535 1536 1537 1538 1539 1540 1541 1542 1543
1495 1506 1513 1509 1508 1506 1505 1506 1509 1509 1509 1511 1512 1513 1515 1517 1518 1520 1521 1522 1524 1525 1526 1526 1527 1528 1528 1528 1529 1530 1530 1531 1532 1532 1532 1533 1534 1535 1535 1536 1537 1538 1539 1540 1541 1542 1543 1543 1544
1496 1508 1506 1501 1500 1502 1504 1506 1508 1509 1511 1512 1513 1515 1516 1518 1519 1521 1522 1523 1525 1526 1528 1529 1530 1530 1531 1531 1532 1532 1533 1533 1534 1534 1535 1536 1536 1537 1537 1538 1539 1540 1540 1541 1542 1543 1544 1545 1545
1495 1501 1498 1498 1499 1501 1504 1506 1507 1509 1512 1511 1512 1515 1517 1519 1521 1522 1524 1525 1527 1528 1530 1531 1532 1533 1533 1534 1534 1535 1536 1536 1537 1537 1537 1538 1538 1539 1539 1540 1541 1541 1542 1543 1543 1544 1545 1545 1546
1495 1496 1497 1498 1500 1502 1504 1506 1508 1509 1510 1511 1513 1515 1518 1520 1522 1524 1525 1527 1529 1530 1532 1533 1534 1535 1536 1536 1536 1537 1538 1539 1539 1540 1540 1540 1540 1541 1541 1542 1542 1543 1543 1544 1544 1545 1545 1546 1547
1495 1497 1498 1499 1501 1503 1506 1508 1509 1510 1511 1513 1515 1517 1519 1521 1524 1526 1528 1529 1530 1532 1533 1534 1536 1537 1538 1538 1539 1539 1540 1541 1541 1541 1542 1542 1542 1542 1543 1543 1543 1544 1544 1545 1545 1546 1546 1546 1547
1496 1498 1500 1502 1503 1506 1508 1510 1511 1512 1513 1514 1516 1519 1521 1523 1525 1527 1528 1530 1532 1533 1534 1536 1537 1538 1539 1540 1540 1541 1542 1542 1543 1543 1543 1544 1544 1544 1544 1544 1545 1545 1545 1545 1546 1546 1546 1546 1547
1497 1501 1504 1504 1505 1507 1510 1514 1513 1512 1514 1516 1518 1520 1522 1524 1526 1527 1529 1531 1532 1534 1535 1537 1538 1539 1540 1541 1542 1542 1543 1544 1544 1544 1545 1545 1545 1545 1545 1545 1546 1546 1546 1546 1546 1546 1546 1546 1547
1500 1508 1514 1508 1506 1508 1514 1521 1513 1513 1515 1517 1519 1521 1523 1525 1527 1528 1530 1532 1533 1535 1536 1537 1539 1540 1541 1542 1543 1543 1544 1545 1545 1545 1546 1546 1546 1546 1546 1546 1546 1547 1547 1547 1546 1546 1546 1546 1546
1510 1518 1517 1511 1506 1508 1513 1517 1513 1514 1515 1517 1519 1521 1523 1525 1527 1529 1531 1532 1534 1535 1536 1538 1539 1540 1542 1543 1544 1544 1545 1545 1546 1546 1546 1546 1547 1547 1547 1547 1547 1547 1547 1547 1547 1546 1546 1546 1546
1516 1517 1515 1515 1507 1508 1513 1514 1512 1514 1515 1517 1519 1521 1523 1524 1526 1528 1530 1532 1534 1535 1537 1538 1539 1541 1542 1543 1544 1545 1545 1546 1546 1546 1547 1547 1547 1547 1547 1547 1547 1547 1547 1547 1547 1547 1546 1546 1546
1505 1511 1514 1510 1504 1508 1513 1513 1513 1514 1515 1517 1518 1519 1521 1523 1525 1528 1530 1532 1533 1535 1536 1538 1539 1541 1542 1543 1543 1544 1545 1546 1546 1546 1546 1547 1547 1547 1547 1547 1547 1547 1547 1547 1547 1547 1546 1546 1545
1503 1510 1512 1508 1503 1508 1513 1513 1510 1511 1512 1513 1515 1516 1518 1521 1524 1526 1528 1530 1532 1534 1535 1537 1538 1540 1541 1542 1543 1544 1545 1545 1546 1546 1546 1547 1547 1547 1547 1546 1547 1547 1547 1546 1546 1546 1546 1545 1545
1504 1508 1509 1510 1507 1508 1512 1517 1513 1510 1512 1513 1514 1515 1516 1518 1520 1523 1526 1528 1530 1532 1534 1536 1537 1539 1540 1541 1543 1543 1544 1545 1545 1546 1546 1546 1546 1546 1546 1546 1546 1546 1546 1546 1546 1546 1545 1545 1545
1507 1500 1502 1506 1515 1524 1518 1534 1517 1512 1511 1510 1511 1512 1513 1515 1518 1520 1523 1525 1528 1530 1533 1534 1536 1538 1539 1540 1541 1542 1543 1543 1544 1545 1545 1546 1546 1546 1546 1546 1546 1546 1546 1545 1545 1545 1544 1544 1544
1498 1496 1501 1507 1516 1525 1523 1531 1524 1513 1513 1508 1506 1507 1508 1511 1514 1516 1519 1522 1525 1528 1530 1532 1534 1536 1538 1539 1540 1541 1542 1543 1544 1544 1544 1545 1545 1545 1545 1545 1545 1545 1545 1544 1544 1543 1543 1543 1543
1493 1501 1508 1516 1524 1537 1527 1532 1527 1515 1508 1502 1501 1502 1504 1507 1510 1513 1516 1520 1523 1525 1528 1530 1532 1534 1536 1537 1538 1539 1540 1541 1542 1543 1543 1543 1544 1544 1544 1544 1544 1544 1544 1543 1543 1542 1542 1542 1541
1496 1514 1533 1537 1545 1541 1525 1528 1522 1502 1497 1496 1496 1497 1500 1503 1506 1510 1513 1516 1519 1522 1525 1527 1530 1532 1534 1535 1537 1538 1539 1540 1540 1541 1542 1542 1542 1542 1542 1542 1542 1542 1542 1542 1542 1541 1541 1540 1540
1499 1508 1531 1543 1546 1539 1526 1526 1510 1495 1492 1492 1493 1495 1498 1501 1503 1506 1509 1513 1516 1520 1523 1525 1527 1530 1532 1533 1535 1536 1537 1538 1539 1540 1540 1540 1541 1541 1541 1541 1541 1541 1541 1541 1540 1540 1539 1539 1538
1500 1507 1508 1526 1533 1538 1531 1519 1504 1492 1491 1491 1492 1494 1496 1498 1500 1503 1507 1510 1514 1517 1520 1523 1525 1527 1529 1531 1533 1534 1536 1536 1537 1538 1539 1539 1539 1539 1539 1539 1539 1539 1539 1539 1538 1538 1538 1537 1537
1490 1500 1515 1527 1540 1543 1531 1524 1515 1497 1493 1491 1491 1492 1493 1495 1498 1501 1504 1507 1510 1514 1517 1520 1522 1525 1527 1529 1530 1532 1533 1534 1535 1536 1536 1537 1537 1538 1538 1538 1538 1538 1538 1537 1536 1536 1536 1535 1535
1497 1503 1512 1524 1527 1539 1541 1526 1495 1492 1489 1489 1489 1490 1491 1493 1495 1498 1501 1504 1507 1511 1513 1516 1519 1522 1524 1526 1528 1529 1531 1532 1533 1534 1534 1535 1535 1536 1536 1536 1536 1536 1535 1535 1534 1534 1534 1533 1533
1487 1495 1505 1517 1526 1530 1533 1522 1485 1485 1485 1485 1486 1487 1489 1491 1494 1496 1498 1502 1505 1507 1510 1513 1516 1518 1521 1523 1525 1527 1528 1529 1530 1531 1532 1532 1533 1533 1533 1533 1533 1533 1533 1532 1532 1532 1531 1531 1530